Weather in Nizhniy Imek

Russia / Republic of Khakassia     52°49′38″N   89°57′35″E
temp.,
°C
wind,
m/s
gust,
m/s
humid.,
%
clouds,
%
prec.,
mm/h
press.,
hPa
HPBL,
m
23 april, fri
fri2301:00−3n1274100 0.0 103877
04:00−4ne1276100 0.0 103885
07:00−3ne2670100 0.0 1038668
10:00−1ne4656100 0.0 10381122
13:00+1ne5745100 0.1 10371449
16:00+3ne4638100 0.0 10351670
19:00+2ene36475 0.0 1035642
22:00−2nw00625 0.0 103510
24 april, sat
sat2401:00−3wnw006898 0.0 103510
04:00−3nnw0075100 0.0 103310
07:00−2wnw0184100 0.1 1033172
10:00+1nne1167100 0.1 1031851
13:00+4nw1251100 0.2 10281364
16:00+2wsw2485100 0.8 1028544
19:00+2wsw3777100 2.4 1029702
22:000wsw51086100 0.4 1031619
25 april, sun
sun2501:00−1wsw31089100 0.6 1031672
04:00−2sw3989100 0.1 1032559
07:00−1wsw3779100 0.1 1032756
10:00+2w4764100 0.0 10321228
13:00+4w5752100 0.3 10301891
16:00+4w5651100 0.1 10301712
19:00+3w3564100 0.3 1030498
22:00−2sw228654 0.0 103323
26 april, mon
mon2601:00−2ssw218842 0.0 103314
04:00−3s118946 0.0 103315
07:00−1sse11775 0.0 103396
10:00+5ene11525 0.0 1031823
13:00+8ne22405 0.0 10291602
16:00+9nne223748 0.0 10271887
19:00+7nne23506 0.0 1027136
22:00+2sse11656 0.0 102910
27 april, tue
tue2701:000s227658 0.0 102917
04:000sse2278100 0.0 102831
07:00+2s127056 0.0 102883
10:00+10wsw264436 0.0 1025976
13:00+11wsw4753100 0.0 10231415
16:00+9wsw4866100 0.7 10241176
19:00+9wsw4971100 0.8 1024850
22:00+6s2386100 0.1 102548